User: anonymous   Login
Location: Taupo
(38.6830°S, 176.0830°E)
Time: 12:04:05
(UTC+13:00)
Language:

COSMOS 2428 - Orbit

View from above orbital plane
View from above orbital plane
View from above satellite
View from above satellite

Ground track
Ground track

The orbit data is extracted from the following two-line orbital elements,

1 31792U 07029A   19315.72213972 -.00000195  00000-0 -79614-4 0  9990
2 31792  70.9335  12.1192 0008827  21.0331 339.1151 14.12420560637983
Epoch (UTC): 11 November 2019 17:19:52
Eccentricity: 0.0008827
inclination: 70.9335°
perigee height: 845 km
apogee height: 857 km
right ascension of ascending node: 12.1192°
argument of perigee: 21.0331°
revolutions per day: 14.12420560
mean anomaly at epoch: 339.1151°
orbit number at epoch: 63798

The dashed part of the orbit path shows where the satellite is in the earth's shadow,  

DLR